STARLINK-35936, 66620

Orbit data source: Space-Track

STARLINK-35936, 66620 is a payload satellite owned by SpaceX/Seattle (US) in LEO that was launched on Sun, 23 Nov 2025 UTC via an FALCON 9 launch vehicle from the Air Force Western Test Range (AFWTR). Payload-class satellites include a variety of spacecraft equipped with specific instruments for various scientific and technological missions. These include communications satellites like Starlink; space stations such as the ISS; scientific satellites like the Hubble; Earth observation satellites from companies like Planet Labs, Umbra, and HawkEye 360; GPS; miniature CubeSats for education and research; and military/defense satellites.

Loading next visibility...
Identifier
66620, 2025-271D
Orbit
LEO
Country
Flag of USUS
Related business
Manufacturer
SpaceX/Seattle
Mission
Operational Commercial Communications
Bus & Motor
STARLINK V2MO, Unknown motor
Mass
575 kg wet, ~530 kg dry
Launch date (UTC)
2025-11-23 (1 month ago)
Launch vehicle
FALCON 9
Launch site
Air Force Western Test Range (AFWTR)
Object type
Payload
Rocket body
Debris
Shape & HBR
Box + 2 Pan, 17.7 m
Radar Cross Section
36.964 m²

Expand to show TLE details & history
Last TLE update: 2 days ago

TLE from 2 days ago
0 STARLINK-35936
1 66620U 25271D   25353.94998243 -.00389636  00000-0 -84825-2 0  9999
2 66620  53.1593 152.7719 0001217  60.4895 299.6234 15.45204148  5322
Epoch: 2025-12-19T22:47Z
TLE epoch observation values (Epoch: 2025-12-19T22:47:58.481Z)
Latitude
-0.00001°
Longitude
81.99443°
Altitude
431.274 km
Speed
7.654 km/s
True Right ascension
10h 11m 05s
True Declination
0° 00' 00"
Sunlit
Object was in full shadow at epoch
Visualization orbit readout
Latitude
Unknown
Longitude
Unknown
Altitude
Unknown
Speed
Unknown
Apparent Right ascension
Unknown
Apparent Declination
Unknown
Sunlit
N/A
Visualization observer readout
Local Sidereal Time
13:58:59
Azimuth
Unknown
Elevation
Unknown
Doppler factor
Unknown
Orbital elements
Apogee altitude
431.865 km
Perigee altitude
430.208 km
Semi-major axis
6,809.173 km
Eccentricity
0.00012
Inclination
53.1593°
RAAN
152.7719°
Arg. of periapsis
60.4895°
True anomaly
299.61128°
Mean anomaly
299.6234°
Eccentric anomaly
299.61734°
Mean motion
3.86279 °/min
Orbital period
93.2 mins
BSTAR
-0.0084825
Loading maneuver chart data...
Computing Atmospheric mass density...
Loading historical data...
Loading historical data...
Loading historical data...
Loading historical data...
Loading historical data...
Loading historical data...
Loading historical data...

Documentation

Showing up to 5 results
|